Location: Waco, TX
(31.5480°N, 97.1670°W)
Time: 13:50:30
(UTC-05:00)

ISS - Pass Details

Date: 04 May 2021
Orbit: 417 x 422 km, 51.6° (Epoch: 15 May)

Event Time Altitude Azimuth Distance (km) Brightness Sun altitude
Rises 09:56:23 0° 313° (NW) 2,369 -0.3 40.3°
Reaches altitude 10° 09:58:30 10° 312° (NW) 1,503 -1.2 40.7°
Maximum altitude 10:01:52 74° 227° (SW) 439 -3.1 41.4°
Drops below altitude 10° 10:05:13 10° 141° (SE) 1,495 -0.3 42.1°
Sets 10:07:18 0° 140° (SE) 2,355 0.5 42.6°
